Location: Rumah Dana
(3.1167°N, 113.0167°E)
Time: 19:53:35
(UTC+00:00)

H-2A R/B - Pass Details

Date: 03 August 2024
Orbit: 731 x 832 km, 98.2° (Epoch: 11 September)

Event Time Altitude Azimuth Distance (km) Brightness Sun altitude
Rises 20:48:36 0° 356° (N) 3,179 5.4 -24.1°
Reaches altitude 10° 20:51:00 10° 348° (NNW) 2,271 4.5 -23.5°
Enters shadow 20:54:27 32° 310° (NW) 1,277 2.9 -22.7°
